Wind_Speed
16 15 12 12 12 11 11 10 10 9 9 10 9 9 10 9 9 9 15 8 9 9 16 17 13 11 5 4 3 2 4 9 9 15 8 12 6 5 5 8 6 6 5 4 7
15 16 14 11 12 11 10 10 11 9 10 7 9 7 10 9 6 17 12 15 16 9 18 22 15 18 6 5 3 4 5 5 3 2 12 12 9 9 6 10 8 9 10 9 10
16 15 15 13 12 11 11 10 9 12 10 7 8 8 11 8 3 6 5 24 21 13 17 16 17 14 9 8 6 2 3 4 7 9 16 10 9 4 16 6 6 7 6 10 13
16 16 15 14 13 12 11 10 11 11 9 6 8 7 11 8 5 3 6 20 20 16 16 15 15 11 8 12 7 6 7 5 2 4 8 10 9 7 10 7 9 9 9 10 14
17 16 16 14 14 13 11 11 9 11 8 7 6 14 10 4 8 5 9 13 22 20 23 16 17 13 11 12 9 8 7 9 12 16 13 17 14 10 12 10 11 12 12 13 13
18 17 16 16 15 13 12 10 9 9 8 7 7 16 4 7 3 11 2 21 22 24 22 17 12 8 7 5 8 10 15 14 8 11 12 13 8 3 5 8 10 10 11 13 14
19 18 17 16 16 14 13 11 8 9 9 7 10 14 4 9 3 10 7 21 20 23 18 17 14 8 11 10 14 17 14 12 7 7 6 14 6 8 8 8 9 9 9 11 12
20 18 17 16 15 14 13 6 5 5 7 7 13 4 4 4 6 1 10 15 17 12 16 7 10 9 5 17 8 6 8 8 5 5 10 4 6 7 6 7 7 7 7 8 10
21 19 18 15 14 13 6 1 1 3 6 8 11 3 4 5 3 7 12 18 18 9 8 7 9 5 8 13 8 7 9 9 8 2 7 8 6 9 7 8 7 5 5 5 7
20 18 16 13 11 6 1 4 8 8 9 6 5 2 4 0 2 8 10 21 12 12 9 8 7 8 10 14 15 18 15 11 11 7 9 10 8 11 8 8 8 7 6 5 5
20 16 13 11 8 4 6 6 4 3 5 4 2 2 1 2 5 3 14 15 11 16 12 13 11 18 23 20 8 14 14 12 5 5 7 6 10 12 10 8 9 8 7 6 5
18 14 9 9 5 2 4 1 4 3 4 15 8 7 6 1 3 9 13 9 13 16 10 8 19 18 15 12 9 14 15 8 6 6 4 9 9 10 11 10 10 10 9 8 7
18 12 9 5 1 7 3 4 3 4 4 3 7 7 3 8 5 14 10 7 15 16 18 15 8 12 15 15 12 12 18 13 8 9 3 10 5 10 12 10 9 9 8 8 8
19 9 7 4 4 3 2 4 6 4 3 5 4 5 6 5 5 9 15 7 5 17 15 12 5 18 15 20 17 16 12 14 17 15 9 9 9 10 16 15 15 15 13 11 10
17 7 1 5 7 5 3 7 6 3 3 3 3 1 3 7 6 6 10 3 9 11 9 11 16 18 20 24 20 11 13 15 15 14 5 8 6 7 12 15 22 21 17 14 11
13 5 5 5 4 2 3 5 3 3 3 2 1 5 8 7 3 5 10 2 2 7 7 10 2 15 18 16 17 18 12 10 5 6 9 16 12 16 10 13 18 20 19 17 14
7 2 2 1 1 3 2 3 3 4 2 1 0 3 9 7 4 8 13 13 8 9 11 12 8 5 7 11 15 14 14 4 6 6 10 8 10 17 9 7 9 25 22 19 16
3 1 2 2 4 2 1 1 4 2 2 2 1 2 5 7 9 7 10 13 13 5 8 12 10 14 13 12 12 24 22 8 13 9 12 7 9 5 3 0 3 17 20 19 17
2 2 1 4 2 1 3 3 1 1 2 4 3 4 6 6 4 12 9 6 12 14 9 9 13 8 16 8 16 15 20 21 9 2 8 10 4 4 5 5 11 18 21 19 17
1 1 2 3 0 1 3 3 2 1 2 1 3 1 3 4 11 11 9 6 8 18 16 3 5 4 9 5 12 12 17 13 9 7 12 6 10 10 13 17 17 19 21 19 17
1 2 1 1 0 1 4 3 3 1 2 3 3 2 3 3 2 4 6 5 8 11 15 8 7 2 5 15 18 8 15 13 12 14 12 15 9 4 1 19 20 19 19 18 17
0 2 2 1 2 1 5 3 1 3 3 5 4 7 5 5 4 4 5 5 7 4 7 12 4 8 12 3 4 6 20 22 10 17 18 16 11 2 2 14 20 20 19 18 17
1 1 3 0 2 3 2 4 2 2 4 2 4 6 5 4 4 6 4 2 1 5 2 3 5 4 3 2 2 6 6 4 17 3 16 12 6 2 9 15 17 21 20 18 17
1 1 1 2 2 4 5 5 3 2 3 3 3 1 2 5 8 4 3 3 3 7 10 5 3 7 10 3 5 11 15 10 10 10 12 17 7 7 13 18 18 19 19 18 17
4 2 3 1 1 2 1 3 7 6 1 2 2 4 3 4 4 6 5 1 4 3 3 4 5 3 3 2 1 2 14 19 14 14 13 9 11 10 18 19 18 18 18 18 16
3 2 1 1 2 2 2 1 2 3 2 2 4 3 4 7 9 14 7 3 6 2 2 1 3 2 3 1 5 4 8 13 23 23 10 3 3 1 15 17 17 19 19 18 16
3 1 2 1 1 2 1 1 1 3 4 4 2 4 8 9 7 9 7 5 3 3 6 3 2 3 5 4 3 7 13 14 8 5 7 12 5 17 19 18 19 18 17 17 16
Wind_Direction
342 345 336 332 332 330 328 328 304 317 284 292 271 243 234 218 203 214 234 221 199 174 167 158 162 151 137 144 139 185 217 203 181 188 140 150 132 60 67 99 62 48 66 56 5
346 340 344 337 329 321 321 320 317 308 276 280 268 231 219 202 212 249 231 225 187 165 172 172 161 159 163 150 162 213 216 186 37 130 152 142 124 119 122 111 81 82 64 58 52
348 344 338 343 331 325 320 306 315 304 289 282 252 233 190 164 261 254 270 218 196 190 181 180 164 167 174 170 165 123 204 107 41 88 130 123 99 95 132 72 43 102 59 50 54
346 343 340 334 333 321 316 308 303 309 278 280 239 216 169 165 212 112 34 205 194 183 178 176 175 177 177 181 153 130 55 73 29 84 123 117 102 78 42 97 94 84 77 63 56
344 341 337 333 327 322 314 310 300 304 288 264 222 177 150 208 251 316 314 188 181 182 181 180 181 183 181 174 150 116 129 72 93 85 79 96 84 101 88 93 93 86 71 63 58
342 339 335 331 325 321 315 309 307 293 269 261 205 173 197 230 252 346 264 163 177 181 184 180 188 191 140 135 200 113 111 112 98 98 125 105 103 116 99 107 88 79 70 61 58
341 337 331 328 323 318 314 310 300 286 254 229 199 176 226 246 270 321 141 171 174 181 178 181 175 185 137 108 122 131 107 110 110 114 118 133 57 78 124 118 102 89 79 67 56
337 334 330 325 323 318 312 312 303 307 215 212 188 162 253 255 278 181 147 154 164 178 186 181 160 106 115 116 123 147 159 154 143 152 167 289 158 158 155 140 124 112 99 83 62
336 333 329 328 323 319 304 39 359 111 172 166 158 228 250 305 252 180 169 159 159 156 161 149 168 111 146 156 150 193 180 174 159 197 155 220 134 163 166 164 146 133 115 104 84
340 336 333 330 323 305 199 121 99 108 123 113 120 275 232 41 157 154 169 157 151 156 151 170 178 165 176 188 196 188 189 185 170 162 195 171 132 154 169 175 165 154 138 116 88
341 337 336 337 323 305 112 123 134 137 231 209 233 272 46 26 123 160 150 143 148 170 178 187 186 200 196 202 249 204 194 167 140 148 159 199 162 178 175 179 181 175 164 147 122
343 345 347 336 309 221 137 82 39 333 243 237 241 260 263 204 134 162 174 156 172 181 160 176 214 209 201 190 169 185 174 158 119 159 213 174 178 178 191 203 197 188 180 170 157
340 345 341 328 206 160 159 97 39 11 249 209 210 231 216 187 185 181 192 162 187 183 194 200 213 175 182 189 176 193 196 178 170 150 51 155 209 205 210 208 203 200 191 181 170
341 349 6 86 117 142 213 312 323 319 272 164 184 236 179 208 217 172 185 167 181 200 197 224 187 184 192 200 200 206 218 173 145 167 210 211 228 195 191 206 210 199 193 181 166
348 354 47 89 130 157 297 309 272 235 257 114 158 124 152 197 128 189 175 189 182 173 184 201 186 190 200 204 198 218 155 164 175 203 198 196 247 148 172 214 212 202 191 180 169
356 16 121 96 93 138 288 275 224 229 246 105 130 162 166 205 142 133 183 93 107 170 237 220 284 192 203 213 194 135 110 100 141 204 236 216 213 232 188 205 201 193 187 176 166
9 60 40 84 127 310 316 195 205 228 15 84 139 191 199 189 156 178 187 197 188 187 205 201 193 187 159 138 153 166 164 160 198 208 235 215 215 240 175 183 205 182 178 171 164
356 54 289 285 311 313 219 210 240 41 307 355 274 109 222 177 206 195 200 207 220 236 192 196 209 187 187 192 182 196 192 194 214 211 213 165 225 219 102 42 214 168 167 165 162
305 282 278 313 316 141 234 215 271 238 320 326 262 213 193 229 250 196 206 219 217 221 225 209 227 192 179 164 163 196 215 214 250 351 242 206 216 191 154 154 152 161 166 165 162
260 288 339 347 90 263 221 281 273 264 293 264 291 219 280 258 190 194 180 207 220 224 222 232 251 182 177 175 207 211 189 204 212 207 228 200 240 234 204 189 170 171 172 164 156
179 207 358 39 21 166 232 245 272 277 284 252 290 276 252 234 277 225 207 198 201 214 207 195 211 155 170 206 193 182 199 208 219 228 236 248 237 27 251 184 175 172 169 162 158
29 216 340 62 185 229 243 267 346 229 231 255 252 230 242 196 263 236 236 262 353 317 202 191 187 210 203 58 351 257 213 208 215 214 231 254 255 22 258 171 167 166 163 162 159
25 344 351 105 228 230 299 283 275 266 252 280 249 236 210 225 266 217 209 138 103 21 202 186 207 169 173 267 238 217 196 251 229 257 221 216 212 47 122 148 163 162 163 159 152
304 229 66 63 16 264 286 285 255 204 256 261 277 262 267 248 229 272 258 191 203 222 190 349 263 231 233 222 144 198 204 203 206 216 221 231 219 175 163 162 163 163 159 154 153
13 52 10 314 121 351 302 287 276 293 248 259 205 243 258 263 268 243 262 290 207 277 206 201 240 285 300 3 152 272 200 196 204 214 213 225 208 188 179 167 163 154 152 151 152
16 348 34 329 299 288 219 216 278 303 278 246 251 314 286 249 257 296 301 257 260 137 204 284 219 168 254 215 273 229 233 221 211 222 243 142 210 122 143 143 151 155 154 152 152
37 45 296 84 231 243 232 291 183 347 255 271 312 307 275 280 290 286 279 279 287 238 196 200 212 183 249 144 144 273 222 201 197 190 230 208 135 147 149 160 162 156 154 149 149
Height
799 795 793 790 788 787 786 784 784 781 781 780 778 777 778 781 782 784 781 780 781 782 786 788 792 792 795 797 796 801 803 798 804 802 812 822 824 842 847 850 858 864 871 875 874
798 796 792 789 787 785 784 782 780 776 778 777 778 776 779 779 782 778 776 776 780 783 784 785 785 790 793 796 797 800 802 798 809 801 807 818 825 837 846 851 864 870 877 877 874
797 794 792 789 786 784 782 781 780 779 775 776 776 777 778 778 781 769 766 771 776 782 783 784 785 787 792 791 794 802 803 810 819 813 815 828 839 844 846 863 871 873 879 879 876
796 793 790 788 785 783 781 779 778 776 775 772 775 775 776 778 773 767 766 768 773 779 782 784 784 786 788 790 792 804 818 817 827 826 823 831 845 859 862 876 878 881 882 881 881
795 791 790 786 783 781 779 777 776 774 772 773 774 774 776 776 770 765 765 765 773 778 778 779 782 782 786 785 794 802 822 826 831 837 838 840 854 866 879 882 883 882 885 885 884
794 791 787 786 782 779 777 775 773 772 772 771 771 774 775 774 766 766 762 765 769 775 776 778 779 780 785 791 790 810 821 827 835 836 842 846 862 860 882 882 885 885 887 889 887
792 789 785 782 780 777 774 773 771 770 769 769 771 773 772 767 765 765 763 766 770 774 775 778 780 779 786 801 810 812 818 824 833 836 846 840 855 877 880 882 885 889 890 890 892
789 786 783 780 778 776 772 770 768 767 768 769 771 772 767 764 764 764 765 768 772 775 778 780 781 784 788 800 809 807 807 809 833 832 842 838 845 880 882 881 887 889 891 893 896
787 784 781 778 775 773 771 768 767 767 768 770 773 772 765 763 763 764 765 767 772 776 779 780 780 788 795 791 799 804 795 804 829 835 835 839 849 873 881 882 885 889 891 894 895
784 781 778 775 772 770 768 768 767 768 770 772 772 775 764 762 762 764 766 768 770 774 778 778 779 783 785 784 786 788 792 798 806 833 830 831 854 873 881 880 883 888 891 894 896
781 776 774 773 771 770 769 770 771 772 769 762 764 762 762 763 763 765 766 768 770 772 774 776 778 777 773 774 772 776 784 798 827 838 830 832 852 868 878 881 883 885 889 893 898
777 775 773 771 769 768 768 768 772 773 764 761 764 765 764 763 762 765 767 765 769 771 776 781 774 768 771 781 783 785 791 808 836 839 827 840 842 861 871 872 876 879 884 890 895
776 772 771 768 767 769 768 770 770 770 766 757 757 761 760 763 758 762 764 764 764 768 770 766 766 773 778 782 785 785 784 804 797 838 843 835 834 860 865 869 875 879 882 888 890
776 772 768 767 771 770 771 770 770 770 758 754 756 755 757 758 758 757 760 762 767 767 770 768 768 771 774 776 776 784 782 794 815 809 798 827 784 827 844 861 869 873 880 884 889
775 773 770 766 767 769 772 770 770 771 752 754 755 753 754 755 756 758 760 761 763 764 767 763 767 771 772 767 770 776 787 795 804 793 802 827 806 782 834 848 849 855 869 878 886
776 774 772 770 770 770 768 768 770 760 756 752 753 751 754 754 755 758 759 759 761 764 764 757 765 763 761 764 771 791 795 802 804 799 798 777 792 759 818 807 815 844 861 874 884
775 775 772 771 769 766 766 766 759 752 750 754 753 752 750 753 756 754 759 759 758 765 764 763 765 763 765 773 779 776 780 800 804 803 782 773 793 762 783 806 805 826 853 870 880
775 774 773 772 770 768 768 767 762 755 752 755 751 751 753 749 751 755 760 761 752 755 751 758 764 758 755 753 766 765 761 766 775 774 766 795 775 753 820 830 825 832 852 867 877
774 774 772 772 771 771 767 761 751 756 760 757 752 751 755 753 753 756 759 761 755 751 754 752 745 746 749 752 754 764 760 750 759 768 756 755 771 822 831 834 836 842 855 866 876
774 773 772 772 772 773 769 764 762 762 762 760 753 755 752 750 752 758 759 750 751 749 750 756 751 748 747 751 750 747 749 768 769 770 761 745 752 736 815 823 838 848 856 866 875
773 770 772 771 772 772 767 764 763 763 764 759 756 757 760 762 767 754 747 744 745 744 748 759 756 757 752 744 740 749 744 744 746 746 739 738 728 785 781 803 830 845 855 866 875
773 766 770 771 770 773 762 761 765 762 764 761 760 759 762 765 759 757 753 754 760 758 748 756 755 745 747 761 763 744 729 735 739 740 733 732 728 811 811 804 826 842 856 868 875
774 773 772 770 765 766 769 767 768 765 763 762 758 755 754 761 759 755 758 766 767 761 755 758 749 746 758 766 768 757 748 747 731 739 731 737 730 812 810 820 831 843 856 866 876
779 769 772 772 776 769 769 769 767 769 769 769 765 764 763 758 758 754 756 765 770 764 761 766 749 732 711 711 723 744 741 748 742 744 729 718 739 816 819 825 835 844 856 866 876
784 788 794 770 775 779 780 774 769 769 771 770 763 764 765 764 759 756 757 764 767 767 763 761 749 752 747 749 744 743 727 736 744 737 731 724 735 780 806 818 831 843 857 868 876
788 791 795 790 792 787 783 776 776 773 774 768 769 768 769 767 758 761 759 762 755 768 766 766 745 757 751 767 761 751 750 733 727 729 740 766 761 800 810 825 838 849 857 866 875
802 803 800 791 789 785 781 783 781 785 774 775 776 776 771 765 767 765 768 767 764 760 763 762 757 755 734 764 765 752 742 738 732 752 743 750 757 802 819 828 839 847 855 864 873